Location: Unspecified
(49.7670°N, 0.0000°E)
Time: 08:48:52
(UTC+00:00)

Envisat - Visible Passes

Search period start: 05 April 2026 00:00
Search period end: 15 April 2026 00:00
Orbit: 761 x 763 km, 98.4° (Epoch: 29 March)

Date Brightness Start Highest point End Pass type
(mag) Time Alt. Az. Time Alt. Az. Time Alt. Az.
5 Apr 5.5 01:06:38 10° ENE 01:08:06 11° E 01:09:04 11° E visible
5 Apr 3.0 02:42:50 10° NNE 02:47:55 75° ESE 02:49:12 50° S visible
5 Apr 4.5 04:22:45 10° NNW 04:26:19 20° WNW 04:29:20 12° W visible
6 Apr 4.1 02:05:16 10° NNE 02:09:57 36° E 02:11:04 32° SE visible
6 Apr 3.7 03:44:15 10° N 03:48:53 36° WNW 03:51:12 24° WSW visible
7 Apr 5.1 01:28:20 10° NE 01:31:47 18° E 01:32:55 17° ESE visible
7 Apr 2.9 03:06:11 10° N 03:11:15 72° WNW 03:13:03 40° SW visible
7 Apr 4.9 04:46:53 10° NNW 04:49:18 14° NW 04:51:43 10° W visible
8 Apr 3.4 02:28:24 10° NNE 02:33:24 57° E 02:34:54 41° SSE visible
8 Apr 4.3 04:07:56 10° N 04:12:00 25° WNW 04:15:02 15° WSW visible
9 Apr 4.5 01:51:01 10° NE 01:55:21 28° E 01:56:46 24° ESE visible
9 Apr 3.4 03:29:38 10° N 03:34:29 47° WNW 03:36:54 27° SW visible
10 Apr 5.4 01:14:35 10° ENE 01:17:05 14° E 01:18:37 12° ESE visible
10 Apr 2.9 02:51:39 10° NNE 02:56:46 88° ESE 02:58:45 38° SSW visible
10 Apr 4.7 04:31:50 10° NNW 04:35:03 17° NW 04:38:14 10° W visible
11 Apr 3.9 02:14:00 10° NNE 02:18:51 43° E 02:20:36 32° SE visible
11 Apr 3.9 03:53:13 10° N 03:57:38 31° WNW 04:00:44 17° WSW visible
12 Apr 4.9 01:36:52 10° NE 01:40:43 21° E 01:42:27 18° ESE visible
12 Apr 3.1 03:15:03 10° N 03:20:03 61° WNW 03:22:35 29° SW visible
13 Apr 3.2 02:37:11 10° NNE 02:42:16 67° ESE 02:44:26 34° S visible
13 Apr 4.4 04:16:58 10° N 04:20:44 21° WNW 04:24:29 10° WSW visible
14 Apr 4.3 01:59:41 10° NNE 02:04:16 33° E 02:06:17 24° SE visible
14 Apr 3.6 03:38:33 10° N 03:43:16 40° WNW 03:46:25 19° SW visible
